Tracking 28792 objects as of 23-Apr-2024
HD Live streaming from Space Station
objects crossing your sky now

SL-12 R/B(2)

Track SL-12 R/B(2) now!


NORAD ID: 25900
Int'l Code: 1999-047E
Perigee: 35,391.0 km
Apogee: 36,262.3 km
Inclination: 14.4 °
Period: 1,437.8 minutes
Semi major axis: 42197 km
RCS: 1.9952 m2 (large)
Launch date: September 6, 1999
Source: Commonwealth of Independent States (former USSR) (CIS)
Launch site: TYURATAM MISSILE AND SPACE COMPLEX (TTMTR)

Note: This is a ROCKET BODY
Your satellite tracking list
Your tracking list is empty




NASA's NSSDC Master Catalog

Two Line Element Set (TLE):
1 25900U 99047E   24112.96978074 -.00000125  00000-0  00000-0 0  9994
2 25900  14.4046   5.1036 0103242  44.4889 146.4436  1.00154555 90105
Source of the keplerian elements: AFSPC